Bloomington, IL

10:04 AM CDT on April 22, 2018 (GMT -0500)
Central Ill Regional

Weather History for KBMI - September, 2013

Change the Weather History Date:

Friday, September 20, 2013

  Actual Average Record
Temperature  
Mean Temperature 67 °F -  
Max Temperature 72 °F 87 °F 102 °F (2014)
Min Temperature 55 °F 60 °F 43 °F (2006)
Cooling Degree Days 2    
Growing Degree Days 17 (Base 50)    
Moisture  
Dew Point 63 °F    
Average Humidity 85    
Maximum Humidity 100    
Minimum Humidity 56    
Precipitation  
Precipitation 0.31 in - - ()
Sea Level Pressure  
Sea Level Pressure 29.87 in    
Wind  
Wind Speed 13 mph (West)    
Max Wind Speed 24 mph    
Max Gust Speed 41 mph    
Visibility 8 miles    
Events Rain , Thunderstorm    
Averages and records for this station are not official NWS values.
T = Trace of Precipitation, MM = Missing Value Source: NWS Daily Summary

Daily Weather History Graph

Daily Weather History Graph

Search for Another Location

Airport or City:

Astronomy

Sep. 20, 2013 Rise Set
Actual Time 6:41 AM CDT 6:55 PM CDT
Civil Twilight 6:14 AM CDT 7:22 PM CDT
Nautical Twilight 5:42 AM CDT 7:54 PM CDT
Astronomical Twilight 5:09 AM CDT 8:27 PM CDT
Moon 7:28 PM CDT (9/20) 7:56 AM CDT (9/20)
Length of Visible Light 13h 08m
Length of Day
12h 14m
Full, 98% of the Moon is Illuminated
Sep 20
Full
Sep 26
Last Quarter
Oct 4
New
Oct 11
First Quarter
Oct 18
Full

Hourly Weather History & Observations

Time (CDT) Temp. Dew Point Humidity Pressure Visibility Wind Dir Wind Speed Gust Speed Precip Events Conditions
12:12 AM 75.2 °F 66.2 °F 73% 29.94 in 9.0 mi West 20.7 mph 41.4 mph 0.00 in Rain , Thunderstorm Light Thunderstorms and Rain
12:20 AM 71.6 °F 66.2 °F 83% 29.93 in 5.0 mi WNW 24.2 mph 36.8 mph 0.00 in Rain , Thunderstorm Light Thunderstorms and Rain
12:31 AM 69.8 °F 68.0 °F 94% 29.92 in 1.5 mi WNW 19.6 mph - 0.15 in Rain , Thunderstorm Heavy Thunderstorms and Rain
12:40 AM 69.8 °F 68.0 °F 94% 29.91 in 2.0 mi WNW 15.0 mph - 0.18 in Rain , Thunderstorm Light Thunderstorms and Rain
12:43 AM 69.8 °F 68.0 °F 94% 29.91 in 6.0 mi WNW 12.7 mph - 0.19 in Rain , Thunderstorm Thunderstorms and Rain
12:56 AM 68.9 °F 68.0 °F 97% 29.86 in 2.0 mi WNW 9.2 mph - 0.28 in Rain , Thunderstorm Rain
1:04 AM 69.8 °F 68.0 °F 94% 29.91 in 4.0 mi WNW 9.2 mph - 0.00 in Rain , Thunderstorm Light Thunderstorms and Rain
1:24 AM 69.8 °F 68.0 °F 94% 29.90 in 10.0 mi Calm Calm - 0.00 in Rain Light Rain
1:56 AM 68.9 °F 68.0 °F 97% 29.83 in 10.0 mi South 8.1 mph - 0.00 in   Partly Cloudy
2:38 AM 68.0 °F 68.0 °F 100% 29.87 in 10.0 mi South 9.2 mph - N/A   Partly Cloudy
2:56 AM 68.0 °F 68.0 °F 100% 29.82 in 10.0 mi South 10.4 mph - N/A   Mostly Cloudy
3:56 AM 68.0 °F 68.0 °F 100% 29.84 in 9.0 mi WSW 10.4 mph - N/A   Overcast
4:56 AM 68.0 °F 66.9 °F 96% 29.84 in 10.0 mi SW 9.2 mph - N/A   Mostly Cloudy
5:03 AM 68.0 °F 66.2 °F 94% 29.89 in 10.0 mi WSW 10.4 mph - N/A   Scattered Clouds
5:37 AM 68.0 °F 68.0 °F 100% 29.89 in 10.0 mi SW 10.4 mph - N/A   Mostly Cloudy
5:56 AM 68.0 °F 68.0 °F 100% 29.85 in 8.0 mi SW 9.2 mph - 0.00 in Rain Light Rain
6:56 AM 68.0 °F 66.9 °F 96% 29.86 in 7.0 mi SW 8.1 mph - 0.02 in Rain Light Rain
7:56 AM 68.0 °F 66.9 °F 96% 29.86 in 10.0 mi SW 8.1 mph - 0.00 in   Mostly Cloudy
8:56 AM 68.0 °F 66.9 °F 96% 29.87 in 10.0 mi SW 10.4 mph - N/A   Overcast
9:56 AM 68.9 °F 66.9 °F 93% 29.87 in 10.0 mi West 10.4 mph - N/A   Overcast
10:01 AM 69.8 °F 66.2 °F 88% 29.90 in 10.0 mi West 9.2 mph - N/A   Overcast
10:45 AM 69.8 °F 68.0 °F 94% 29.91 in 4.0 mi WSW 6.9 mph - 0.01 in Rain Light Rain Showers
10:56 AM 68.9 °F 68.0 °F 97% 29.87 in 8.0 mi West 8.1 mph - 0.01 in   Overcast
11:56 AM 70.0 °F 68.0 °F 93% 29.86 in 6.0 mi WNW 6.9 mph - 0.00 in Rain Light Rain
12:56 PM 72.0 °F 66.9 °F 84% 29.86 in 10.0 mi West 8.1 mph - 0.00 in   Mostly Cloudy
1:56 PM 72.9 °F 63.9 °F 73% 29.84 in 10.0 mi West 8.1 mph - N/A   Mostly Cloudy
2:56 PM 72.9 °F 59.9 °F 64% 29.83 in 10.0 mi WNW 9.2 mph - N/A   Mostly Cloudy
3:56 PM 72.0 °F 57.9 °F 61% 29.83 in 10.0 mi West 10.4 mph - N/A   Partly Cloudy
4:56 PM 70.9 °F 56.8 °F 61% 29.83 in 10.0 mi WNW 16.1 mph - N/A   Clear
5:56 PM 68.0 °F 54.0 °F 61% 29.85 in 10.0 mi WNW 13.8 mph - N/A   Clear
6:56 PM 64.9 °F 54.0 °F 68% 29.85 in 10.0 mi WNW 8.1 mph - N/A   Clear
7:56 PM 64.9 °F 48.9 °F 56% 29.86 in 10.0 mi NW 11.5 mph - N/A   Clear
8:56 PM 63.0 °F 50.0 °F 63% 29.88 in 10.0 mi NW 11.5 mph - N/A   Clear
9:56 PM 61.0 °F 50.0 °F 67% 29.89 in 10.0 mi NW 11.5 mph - N/A   Clear
10:56 PM 59.0 °F 50.9 °F 74% 29.88 in 10.0 mi NW 9.2 mph - N/A   Clear
11:56 PM 55.9 °F 50.9 °F 83% 29.88 in 10.0 mi WNW 8.1 mph - N/A   Clear